Location: Haliburton Scout Reserve
(45.0900°N, 78.3200°W)
Time: 06:59:48
(UTC-04:00)

S-56A Canister/Altair - Pass Details

Date: 30 January 2023
Orbit: 639 x 2493 km, 38.9° (Epoch: 27 March)

Event Time Altitude Azimuth Distance (km) Brightness Sun altitude
Rises 12:45:53 0° 235° (SW) 3,074 11.2 27.2°
Reaches altitude 10° 12:48:07 10° 227° (SW) 2,270 10.8 27.1°
Maximum altitude 12:52:56 38° 159° (SSE) 1,354 10.2 27.0°
Drops below altitude 10° 12:59:35 10° 94° (E) 3,142 10.7 26.9°
Sets 13:03:12 0° 88° (E) 4,427 11.3 26.8°
